www.pogodaiklimat.ru

Погода и климат >> Архив погоды >> Россия >> Волгоградская область >> Елань


ПОГОДА в Елани

  • Прогноз погоды в Елани
  • Монитор погоды в Елани

АРХИВ ПОГОДЫ в Елани

Время (UTC), дата Ветер
(напр.,м/с)
 
Видим.   Явления Облачность Т
(С)
Тd
(С)
f
(%)
Тe
(С)
Тes
(С)
Комфортность P
(гПа)
Po
(гПа)
Тmin
(С)
Tmax
(С)
R
(мм)
R24
(мм)
S
(см)
15 11.04 ЮВ 2 20 км 8/3 1000 м
[Cu hum Ci fib]
+20.2 -0.9 24 +21 +21 комфорт 1014.3 998.7 +22.7
18 11.04 В 2 20 км 6/0
[Ac As Ci fib]
+14.0 +1.9 44 +14 +14 1015.3 999.4
21 11.04 штиль 0 20 км 4/0
[Ci fib]
+10.7 +2.4 56 +10 +10 1015.0 998.9
00 12.04 штиль 0 20 км ясно +8.8 +2.4 64 +8 +8 1014.4 998.2
03 12.04 СВ 1 20 км 5/0
[Ci]
+8.1 +2.8 69 +8 +8 1014.3 998.0 +7.6
06 12.04 ЮВ 1 20 км 10/1 1000 м
[Cb cap Ac As Ci fib]
+16.1 +4.1 45 +17 +21 1014.0 998.2
09 12.04 ЮВ 4 20 км 8/1 1000 м
[Cu hum Ci fib]
+21.7 +0.6 25 +21 +28 комфорт 1013.0 997.5
12 12.04 ЮВ 4 20 км 9/9 300 м
[Cb cap]
+20.6 +0.2 26 +21 +21 комфорт 1012.1 996.6
15 12.04 ЮВ 3 20 км 8/8 300 м
[Cb cap]
+19.9 +0.2 27 +20 +20 1011.7 996.1 +22.9
18 12.04 штиль 0 20 км 6/6 600 м
[Cb cap]
+15.2 +1.9 41 +15 +15 1012.6 996.8
21 12.04 штиль 0 20 км 8/8 600 м
[Sc diur, vesp]
+11.5 +2.8 55 +11 +11 1012.5 996.5
00 13.04 штиль 0 20 км 6/0
[Ac lent]
+8.7 +3.4 69 +8 +8 1012.4 996.2
03 13.04 штиль 0 20 км 9/0
[Ac trans Ci fib]
+7.1 +4.1 81 +6 +7 1012.5 996.2 +5.9
06 13.04 штиль 0 20 км 10/4 1000 м
[Cu med, cong Ac trans Ci fib]
+14.1 +5.2 55 +14 +17 1012.0 996.2
09 13.04 штиль 0 20 км 9/9 300 м
[Cb cap]
+18.3 +5.1 42 +18 +20 1011.6 996.0
12 13.04 ЮЗ 4 20 км {ливн. осадки} 10/8 300 м
[Cb cap Ac trans]
+16.5 +7.4 55 +16 +16 1011.6 995.9
15 13.04 штиль 0 20 км 10/6 600 м
[Cb cap Ac As]
+14.9 +7.5 61 +15 +15 1011.7 995.9 +19.1
18 13.04 Ю 3 20 км в посл. час гроза 8/8 600 м
[Sc diur, vesp]
+12.8 +6.3 65 +12 +12 1012.7 996.8
21 13.04 штиль 0 20 км 8/8 300 м
[Cb cap]
+9.8 +7.1 83 +9 +9 1012.4 996.3
00 14.04 штиль 0 20 км 3/0
[Ac trans]
+7.3 +6.5 95 +6 +6 1012.4 996.2
03 14.04 штиль 0 4000 м дымка 8/0
[Ac As]
+6.3 +5.8 97 +5 +5 1013.1 996.8 +5.8
06 14.04 СВ 1 20 км 4/0
[Ci fib]
+13.5 +8.4 71 +14 +22 1012.7 996.8
09 14.04 В 2 20 км 9/6 600 м
[Cb cap Ci fib]
+15.3 +7.8 61 +15 +20 1013.1 997.3
12 14.04 В 4 20 км {ливн. осадки} 9/9 300 м
[Cb cap]
+13.6 +9.6 77 +12 +13 1013.2 997.3
15 14.04 В 2 20 км 10/6 600 м
[Cb cap Ac trans]
+13.2 +8.6 74 +13 +13 1013.6 997.6 +15.8 4
18 14.04 В 5 20 км 10/10 300 м
[Sc]
+10.9 +3.7 61 +8 +8 1015.0 998.9
21 14.04 В 3 20 км {ливн. осадки} 10/10 300 м
[Cb cap]
+9.0 +4.3 72 +7 +7 1015.2 999.0
00 15.04 В 3 20 км в посл. час ливневой дождь 8/8 300 м
[Cb cap]
+7.9 +3.4 73 +5 +5 1015.8 999.5
03 15.04 В 4 20 км 10/3 600 м
[Cb cap Ac trans Ci fib]
+6.6 +2.2 73 +3 +3 1016.6 1000.2 +6.5 3
06 15.04 В 4 20 км в посл. час ливневой дождь 10/10 300 м
[Cb cap]
+7.8 +3.1 72 +5 +5 1017.8 1001.5
09 15.04 В 4 20 км 10/10 300 м
[Cb cap]
+9.4 +4.8 73 +7 +7 1019.0 1002.7
12 15.04 В 4 10 км слаб. ливневой дождь 10/10 300 м
[Cb cap]
+9.6 +5.8 77 +7 +7 1019.7 1003.4
15 15.04 СВ 3 10 км слаб. ливневой дождь 10/10 300 м
[Cb cap]
+10.4 +6.3 76 +8 +8 1019.2 1003.0 +11.0 0.3
18 15.04 СВ 3 20 км {ливн. осадки} 8/8 300 м
[Cb cap]
+8.5 +4.4 75 +6 +6 1019.6 1003.3
21 15.04 СВ 4 20 км 10/10 300 м
[Cb cap]
+8.5 +3.5 71 +6 +6 1019.9 1003.6
00 16.04 В 3 10 км слаб. ливневой дождь 10/10 300 м
[Cb cap]
+7.2 +4.6 84 +4 +4 1019.4 1003.0
03 16.04 СВ 3 20 км в посл. час ливневой дождь 10/8 300 м
[Cb cap Ac As]
+6.6 +4.8 88 +3 +3 1019.1 1002.7 +6.6 2
06 16.04 СВ 4 10 км слаб. ливневой дождь 10/10 300 м
[Cb cap]
+7.1 +5.0 86 +4 +4 1019.8 1003.5 +6.5
09 16.04 В 4 10 км слаб. ливневой дождь 10/10 300 м
[Cb cap]
+9.1 +6.7 85 +6 +6 1019.7 1003.5
12 16.04 В 3 20 км {ливн. осадки} 10/8 300 м
[Cb cap Ac As]
+10.2 +6.8 79 +8 +9 1018.9 1002.7
15 16.04 В 1 20 км 10/10 300 м
[Cb cap]
+10.8 +5.3 69 +11 +11 1018.2 1002.1 +10.9 2
18 16.04 штиль 0 20 км 10/10 300 м
[Sc diur, vesp]
+9.3 +5.6 78 +9 +9 1019.0 1002.8
21 16.04 СВ 2 20 км 6/0
[Ac trans]
+6.8 +0.2 63 +5 +5 1019.5 1003.1
00 17.04 СВ 5 20 км 3/0
[Ac trans]
+4.4 -1.8 64 -0 -0 1021.3 1004.7
03 17.04 СВ 3 20 км 3/0
[Ci fib]
+2.5 -2.3 71 -1 -1 1023.3 1006.5 +2.3
06 17.04 СВ 6
{11}
20 км 10/6 600 м
[Cb cap Ac As]
+4.4 -2.1 63 -1 -0 1024.9 1008.3
09 17.04 СВ 6
{12}
20 км 5/3 1000 м
[Cu med, cong Ci fib]
+6.9 -5.2 42 +3 +7 1025.5 1009.0
12 17.04 В 6-10
{13}
20 км 3/0
[Ci fib]
+8.5 -12.1 22 +5 +8 1026.0 1009.5
15 17.04 В 5
{12}
20 км 3/0
[Ci fib]
+6.8 -14.2 21 +4 +4 1026.9 1010.4 +8.7
18 17.04 В 2 20 км ясно +2.1 -10.4 39 -0 -0 1029.3 1012.4
21 17.04 СВ 1 20 км ясно -1.3 -9.2 55 -3 -3 1030.1 1013.0
00 18.04 СВ 3 20 км ясно -2.5 -10.3 55 -7 -7 1030.2 1013.0
03 18.04 СВ 2 20 км 1/0
[Ci fib]
-3.1 -9.9 59 -7 -6 1031.0 1013.7 -3.8
06 18.04 В 3 20 км ясно +3.4 -12.0 31 +1 +7 1030.8 1014.0
09 18.04 СВ 4 20 км 3/0
[Ci fib]
+5.9 -12.7 25 +3 +12 опасность
простуды
1029.7 1013.0
12 18.04 В 2 20 км 3/0
[Ci fib]
+8.4 -12.3 22 +7 +15 1027.9 1011.4

 

Местоположение метеостанции Елань (Волгоградская область, Россия): широта 50.95 долгота 43.73 высота над уровнем моря 133 м.

В архиве по умолчанию представлена погода в Елани за последнюю неделю. Архивные данные за месяц целиком и за предыдущие месяцы, начиная с января 2011 года, Вы можете получить, выбрав интересующий диапазон дат из раскрывающегося списка и нажав кнопку "Ввод!".


*Определитесь, кто Вы:
робот инопланетянин человек

Внимание! Время в таблицах - всемирное. Для получения местного времени необходимо прибавить поправку, которая равна 3 ч.

Смотрите также архив погоды в соседних городах и на ближайших метеорологических станциях:

Погода в Рудне (Волгоградская область, Россия) (60 км)
Погода в Даниловке (Волгоградская область, Россия) (70 км)
Погода в Балашове (Саратовская область, Россия) (78 км)
Погода в Калининске (Саратовская область, Россия) (80 км)
Погода в Новоаннинском (Волгоградская область, Россия) (87 км)
Погода в Михайловке (Волгоградская область, Россия) (102 км)
Погода в Росташах (Саратовская область, Россия) (103 км)
Погода в Сплавнухе (Саратовская область, Россия) (116 км)
Погода в Урюпинске (Волгоградская область, Россия) (123 км)
Погода в Борисоглебске (Воронежская область, Россия) (124 км)

Пояснения к столбцам:

Ветер - указаны скорость ветра в м/с - средняя за 10 мин, порывы в срок и между сроками (в фигурных скобках) и направление, откуда дует ветер: С - северный, СВ - северо-восточный, В - восточный, ЮВ - юго-восточный, Ю - южный, ЮЗ - юго-западный, З - западный, СЗ - северо-западный.
Видимость - горизонтальная дальность видимости в метрах или километрах. При видимости от 1 до 10 км при отсутствии осадков обычно наблюдается дымка, при ухудшении видимости до 1 км и менее - туман. В сухую погоду видимость может ухудшаться дымом, пылью или мглою.
Явления - указаны атмосферные явления, наблюдавшиеся в срок или в последний час перед сроком; фигурными скобками обозначены явления, наблюдавшиеся между сроками (за 1-3 часа до срока); квадратными скобками обозначены град или гололедные отложения с указанием их диаметра в мм.
Облачность - указаны через наклонную черту общая и нижняя облачность в баллах и высота нижней границы облаков в метрах; квадратными скобками обозначены формы облаков: Ci - перистые, Cs - перисто-слоистые, Cc - перисто-кучевые, Ac - высококучевые, As - высокослоистые, Sc - слоисто-кучевые, Ns - слоисто-дождевые, Cu - кучевые, Cb - кучево-дождевые. Подробнее классификацию облаков см. в Атласе облаков (PDF).
T - Температура воздуха - температура, измеренная на высоте 2 м над землей.
Td - Температура точки росы - температура, при понижении до которой содержащийся в воздухе водяной пар достигнет насыщения.
f - Относительная влажность воздуха - влажноcть воздуха, измеренная на высоте 2 м над землей.
Te - Эффективная температура - температура, которую ощущает одетый по сезону человек в тени. Характеристика душности погоды. При расчете учитывается влияние влажности воздуха и скорости ветра на теплоощущения человека.
Tes - Эффективная температура на солнце - температура, которую ощущает человек, с поправкой на солнечный нагрев. Характеристика знойности погоды. Зависит от высоты солнца над горизонтом, облачности и скорости ветра. Ночью, в пасмурную погоду, а также при ветре 12 м/с и более поправка равна нулю.
P - Атмосферное давление - приведенное к уровню моря атмосферное давление.
Po - Атмосферное давление - измеренное на уровне метеостанции атмосферное давление.
Tmin - Минимальная температура - минимум температуры воздуха на высоте 2 м над землей.
Tmax - Максимальная температура - максимум температуры воздуха на высоте 2 м над землей.
R - Количество осадков - Количество выпавших осадков за период времени, мм. При наведении курсора мыши на число - период времени, за который выпало указанное количество осадков.
R24 - Количество осадков - Количество выпавших осадков за 24 часа, мм.
S - Снежный покров - Высота снежного покрова, см. При наведении курсора мыши на число - состояние снежного покрова и степень покрытия местности в баллах.